Regional Weather Roundup
Issued by NWS Charleston, SC

Current Version | Previous Version | Text Only | Print | Product List | Glossary Off
Versions: 1 2 3 4 5 6 7 8 9 10 11 12 13 14 15 16 17 18 19 20 21 22 23 24 25 26 27 28 29 30 31 32 33 34 35 36 37 38 39 40 41 42 43 44 45 46 47 48 49 50
000 ASUS42 KCHS 270127 RWRCHS REGIONAL WEATHER ROUNDUP NATIONAL WEATHER SERVICE CHARLESTON SC 900 PM EDT FRI MAY 26 2017 NOTE: "FAIR" INDICATES FEW OR NO CLOUDS BELOW 12,000 FEET WITH NO SIGNIFICANT WEATHER AND/OR OBSTRUCTIONS TO VISIBILITY. NOT ALL STATIONS ARE QUALITY CONTROLLED. USE DATA WITH CAUTION... ESPECIALLY DEWPOINT OBSERVATIONS. SCZ027-030-031-034>040-042>050-270200- ...SOUTHEAST SOUTH CAROLINA... CITY SKY/WX TMP DP RH WIND PRES REMARKS N CHARLESTON PTCLDY 74 56 53 W5 29.96S WATERFRONT PRK N/A 77 67 71 VRB2 29.94S JOHNS ISLAND FAIR 70 61 73 CALM 29.97S PINOPOLIS N/A 77 63 61 CALM 29.89R MONCKS CORNER FAIR 66 59 77 CALM 29.96S SUMMERVILLE FAIR 68 59 73 CALM 29.97S BEAUFORT MCAS CLEAR 73 58 59 SW3 29.97S BEAUFORT ARPT FAIR 75 55 50 CALM 29.97S HILTON HEAD IS CLEAR 73 57 56 CALM 29.99R WALTERBORO CLEAR 70 59 68 CALM 29.98R ALLENDALE FAIR 73 59 60 CALM 29.96R ...SOUTHERN MIDLANDS AND PEE DEE... CITY SKY/WX TMP DP RH WIND PRES REMARKS GEORGETOWN FAIR 64 61 88 CALM 29.97R KINGSTREE FAIR 70 61 73 CALM 29.95S ORANGEBURG CLEAR 71 59 65 CALM 29.96S BARNWELL FAIR 72 63 73 CALM 29.97R AIKEN FAIR 70 59 68 SW5 30.01R MANNING FAIR 70 63 78 N10G25 29.95S COLUMBIA PTCLDY 74 59 59 W3 29.95R SUMTER NOT AVBL FLORENCE CLEAR 74 57 55 W5 29.94R MYRTLE BEACH CLEAR 75 57 53 SW6 29.95S N MYRTLE BEACH CLEAR 71 62 73 CALM 29.94R $$ GAZ063-065-086>088-099>101-113>116-118-119-134>141-150-270200- ...SOUTHEAST GEORGIA... CITY SKY/WX TMP DP RH WIND PRES REMARKS SAVANNAH ARPT MOCLDY 77 54 44 SW5 29.98S HUNTER AAF NOT AVBL FORT STEWART NOT AVBL STATESBORO CLEAR 71 63 77 CALM 29.98R SYLVANIA CLEAR 72 65 79 CALM 29.99R CLAXTON FAIR 68 68 99 CALM 29.99R ...CSRA...CENTRAL AND FAR SOUTHEAST GEORGIA... CITY SKY/WX TMP DP RH WIND PRES REMARKS THOMSON CLEAR 69 63 81 W3 30.02S AUGUSTA-BUSH CLEAR 74 63 68 CALM 29.96R AUGUSTA-DANIEL CLEAR 79 57 46 CALM 29.97S SWAINSBORO FAIR 72 64 78 CALM 30.00R VIDALIA CLEAR 77 61 57 CALM 30.00R EASTMAN FAIR 71 55 56 CALM 30.02S HAZLEHURST FAIR 73 65 75 CALM 30.00R ALMA CLEAR 70 61 73 CALM 29.99F WAYCROSS CLEAR 76 64 66 CALM 30.01R JESUP FAIR 70 59 68 CALM 30.00S BAXLEY FAIR 72 66 83 CALM 30.00R BRUNSWICK CLEAR 77 68 73 S5 30.01R SAINT SIMONS CLEAR 77 65 66 S7 30.00S $$ SCZ027-028-034-036>038-045-046-048>050-GAZ119-141-270200- ...LAKE AND SUPPLEMENTAL COASTAL OBSERVATIONS... STATION/POSITION TIME TEMP WIND PRES WAVE SWELL AIR SEA DIR/SP/G HT/PER HT/PER/DIR (UTC) (F) (DEG/KT/KT) (MB) (FT/S) (FT/S/D) WINYAH BAY 0030 75 250/ 2 1014.0S LAKE MURRAY 0050 75 CALM / 1 1013.5R ACE BASIN NERRS 0045 72 CALM 1015.0S FORT PULASKI 0100 78 220/ 2/ 3 1015.6 SAPELO ISLAND 0100 73 160/ 2 1016.0 $$ ANZ835-935-AMZ111-154-330-350-352-354-370-450-454-472-270200- ...C-MAN AND BUOY OBSERVATIONS... STATION/POSITION TIME TEMP WIND PRES WAVE SWELL AIR SEA DIR/SP/G HT/PER HT/PER/DIR (UTC) (F) (DEG/KT/KT) (MB) (FT/S) (FT/S/D) BUOY 41004 0100 74 75 230/ 16/ 17 1014.5 BUOY 41008 0050 77 77 180/ 12/ 14 1015.4F 2/ 7 2/110/ 7 FOLLY BEACH CMAN 0100 76 230/ 8/ 11 1015.5R CAPERS NEARSHORE 0108 81 76 240/ 12/ 17 1014.5R FRIPP NEARSHORE 0108 78 77 220/ 12/ 16 1014.6R STATION/POSITION TIME TEMP WIND PRES WAVE SWELL AIR SEA DIR/SP/G HT/PER HT/PER/DIR (UTC) (F) (DEG/KT/KT) (MB) (FT/S) (FT/S/D) 5E ST. MARYS GA 0100 78 N/A 2/ 7 FRYING PAN BUOY 0100 74 75 230/ 16/ 19 1014.0 BUOY 41025 0050 76 80 250/ 17/ 19 1012.6R 6/ 7 2/220/11 CAPE LOOKOUT NC 0100 73 240/ 13/ 18 1012.9R BUOY 41002 0050 77 77 250/ 12/ 16 1016.0R 5/ 7 5/180/ 7 BUOY 41010 0100 78 79 320/ 4/ 6 1017.0 ST AUGUSTINE FL 0100 75 78 160/ 13/ 14 1017.7R $$

USA.gov is the U.S. government's official web portal to all federal, state and local government web resources and services.